Tracking 19634 objects as of 23-May-2019
HD Live streaming from Space Station
objects crossing your sky now

LEMUR 2 ANGELA

Track LEMUR 2 ANGELA now!
10-day predictions
LEMUR 2 ANGELA is classified as:


NORAD ID: 42752
Int'l Code: 2017-019B
Perigee: 475.3 km
Apogee: 488.7 km
Inclination: 51.6 °
Period: 94.1 minutes
Semi major axis: 6853 km
RCS: Unknown
Launch date: April 18, 2017
Source: United States (US)
Launch site: AIR FORCE EASTERN TEST RANGE (AFETR)
aabbcc
Your satellite tracking list
Your tracking list is empty




NASA's NSSDC Master Catalog

Two Line Element Set (TLE):
1 42752U 17019B   19142.91423571  .00001060  00000-0  47877-4 0  9991
2 42752  51.6413 258.2141 0009768 346.5609  13.5110 15.30311558109113
Source of the keplerian elements: AFSPC